Siemreap, Cambodia

8:09 AM +07 on March 27, 2017 (GMT +0700)
Siem Reap

Weather History for VDSR - November, 2012

Change the Weather History Date:

Wednesday, November 7, 2012

  Actual Average Record
Temperature  
Mean Temperature 82 °F -  
Max Temperature 87 °F - - ()
Min Temperature 77 °F - - ()
Cooling Degree Days 17    
Growing Degree Days 32 (Base 50)    
Moisture  
Dew Point 76 °F    
Average Humidity 77    
Maximum Humidity 94    
Minimum Humidity 58    
Precipitation  
Precipitation 0.00 in - - ()
Sea Level Pressure  
Sea Level Pressure 29.78 in    
Wind  
Wind Speed 3 mph ()    
Max Wind Speed 8 mph    
Max Gust Speed -    
Visibility 5.9 miles    
Events      
T = Trace of Precipitation, MM = Missing Value Source: Averaged Metar Reports

Daily Weather History Graph

Daily Weather History Graph

Search for Another Location

Airport or City:

Trip Planner

Search our weather history database for the weather conditions in past years. The results will help you decide how hot, cold, wet, or windy it might be!

Date:

Astronomy

Nov. 07, 2012 Rise Set
Actual Time 6:00 AM +07 5:35 PM +07
Civil Twilight 5:38 AM +07 5:57 PM +07
Nautical Twilight 5:13 AM +07 6:23 PM +07
Astronomical Twilight 4:47 AM +07 6:48 PM +07
Moon No Moon Rise 12:20 PM +07 (11/7)
Length of Visible Light 12h 19m
Length of Day
11h 35m
Waning Gibbous, 48% of the Moon is Illuminated
Nov 7
Waning Gibbous
Nov 14
New
Nov 20
First Quarter
Nov 28
Full
Dec 6
Last Quarter

Hourly Weather History & Observations

Time (+07) Temp. Heat Index Dew Point Humidity Pressure Visibility Wind Dir Wind Speed Gust Speed Precip Events Conditions
12:00 AM 78.8 °F - 77.0 °F 94% 29.80 in 5.6 mi Calm Calm - N/A   Scattered Clouds
7:00 AM - - - %  in - Calm Calm - -  
7:00 AM 78.8 °F - 73.4 °F 83% 29.83 in 5.6 mi ENE 5.8 mph - N/A   Scattered Clouds
7:30 AM 78.8 °F - 73.4 °F 83% 29.83 in 5.6 mi ENE 4.6 mph - N/A   Scattered Clouds
8:00 AM 80.6 °F 85.4 °F 73.4 °F 79% 29.83 in 5.6 mi ENE 4.6 mph - N/A   Scattered Clouds
8:30 AM 82.4 °F 89.5 °F 75.2 °F 79% 29.86 in 6.2 mi Calm Calm - N/A   Scattered Clouds
9:00 AM 86.0 °F 93.4 °F 73.4 °F 66% 29.86 in 6.2 mi Calm Calm - N/A   Scattered Clouds
9:30 AM 86.0 °F 95.1 °F 75.2 °F 70% 29.86 in 6.2 mi Variable 1.2 mph - N/A   Scattered Clouds
10:00 AM 86.0 °F 95.1 °F 75.2 °F 70% 29.86 in 6.2 mi ESE 6.9 mph - N/A   Scattered Clouds
10:30 AM 87.8 °F 97.6 °F 75.2 °F 66% 29.83 in 6.2 mi SSE 5.8 mph - N/A   Scattered Clouds
11:00 AM 86.0 °F 91.8 °F 71.6 °F 62% 29.83 in 6.2 mi SE 6.9 mph - N/A   Scattered Clouds
11:30 AM 87.8 °F 93.8 °F 71.6 °F 58% 29.83 in 6.2 mi SSE 8.1 mph - N/A   Scattered Clouds
12:00 PM 86.0 °F 95.1 °F 75.2 °F 70% 29.80 in 6.2 mi South 5.8 mph - N/A   Scattered Clouds
12:30 PM 86.0 °F 95.1 °F 75.2 °F 70% 29.80 in 6.2 mi South 6.9 mph - N/A   Scattered Clouds
1:00 PM 87.8 °F 95.6 °F 73.4 °F 62% 29.77 in 6.2 mi South 6.9 mph - N/A   Scattered Clouds
1:30 PM 87.8 °F 95.6 °F 73.4 °F 62% 29.77 in 6.2 mi Variable 3.5 mph - N/A   Scattered Clouds
2:00 PM 87.8 °F 97.6 °F 75.2 °F 66% 29.74 in 6.2 mi SSW 4.6 mph - N/A   Scattered Clouds
2:30 PM 87.8 °F 97.6 °F 75.2 °F 66% 29.74 in 6.2 mi SSW 5.8 mph - N/A   Scattered Clouds
3:00 PM 87.8 °F 97.6 °F 75.2 °F 66% 29.71 in 6.2 mi SSW 4.6 mph - N/A   Scattered Clouds
3:30 PM 86.0 °F 95.1 °F 75.2 °F 70% 29.71 in 6.2 mi South 5.8 mph - N/A   Scattered Clouds
4:00 PM 84.2 °F 92.3 °F 75.2 °F 74% 29.71 in 6.2 mi SSW 4.6 mph - N/A   Scattered Clouds
4:30 PM 84.2 °F 92.3 °F 75.2 °F 74% 29.71 in 6.2 mi SW 3.5 mph - N/A   Scattered Clouds
5:00 PM 84.2 °F 94.1 °F 77.0 °F 79% 29.71 in 6.2 mi Variable 1.2 mph - N/A   Scattered Clouds
5:30 PM 84.2 °F 94.1 °F 77.0 °F 79% 29.71 in 5.6 mi Calm Calm - N/A   Scattered Clouds
6:00 PM 82.4 °F 90.9 °F 77.0 °F 84% 29.74 in 5.6 mi Calm Calm - N/A   Scattered Clouds
6:30 PM 82.4 °F 90.9 °F 77.0 °F 84% 29.74 in 5.6 mi Calm Calm - N/A   Scattered Clouds
7:00 PM 82.4 °F 90.9 °F 77.0 °F 84% 29.74 in 5.6 mi Calm Calm - N/A   Scattered Clouds
7:30 PM 82.4 °F 92.4 °F 78.8 °F 89% 29.77 in 5.6 mi Calm Calm - N/A   Scattered Clouds
8:00 PM 82.4 °F 90.9 °F 77.0 °F 84% 29.77 in 5.6 mi Calm Calm - N/A   Scattered Clouds
8:30 PM 82.4 °F 90.9 °F 77.0 °F 84% 29.80 in 5.6 mi Calm Calm - N/A   Scattered Clouds
9:00 PM 80.6 °F 88.1 °F 78.8 °F 94% 29.80 in 5.6 mi Calm Calm - N/A   Scattered Clouds
9:30 PM 80.6 °F 88.1 °F 78.8 °F 94% 29.80 in 5.6 mi Calm Calm - N/A   Scattered Clouds
10:00 PM 80.6 °F 88.1 °F 78.8 °F 94% 29.80 in 5.6 mi Calm Calm - N/A   Scattered Clouds
10:30 PM 80.6 °F 88.1 °F 78.8 °F 94% 29.80 in 5.6 mi Calm Calm - N/A   Scattered Clouds
11:00 PM 80.6 °F 87.1 °F 77.0 °F 89% 29.80 in 5.6 mi Calm Calm - N/A   Scattered Clouds
11:30 PM 80.6 °F 87.1 °F 77.0 °F 89% 29.77 in 5.6 mi Calm Calm - N/A   Scattered Clouds